| time (UTC) | temp C | wind direction | speed KPH | gust KPH | rain 1hr cm | rain 24hr cm | rain mn cm | humidity % | barometer mb |
| 20260906114539 | 22 | 72 | 0.0 | 0.0 | 0.00 | 1.78 | 0.00 | 82 | 1011.5 |
| 20260906113038 | 21 | 72 | 0.0 | 0.0 | 0.00 | 1.78 | 0.00 | 82 | 1011.4 |
| 20260906111539 | 21 | 72 | 0.0 | 0.0 | 0.00 | 1.78 | 0.00 | 82 | 1011.5 |
| 20260906110036 | 21 | 72 | 0.0 | 0.0 | 0.00 | 1.78 | 0.00 | 83 | 1011.6 |
| 20260906104539 | 21 | 72 | 0.0 | 0.0 | 0.00 | 1.78 | 0.00 | 83 | 1011.4 |
| 20260906103036 | 21 | 72 | 0.0 | 0.0 | 0.00 | 1.78 | 0.00 | 83 | 1011.1 |
| 20260906101535 | 22 | 72 | 0.0 | 0.0 | 0.00 | 1.78 | 0.00 | 82 | 1011.3 |
| 20260906100038 | 22 | 72 | 0.0 | 0.0 | 0.00 | 1.78 | 0.00 | 82 | 1011.3 |
| 20260906094536 | 22 | 72 | 0.0 | 0.0 | 0.00 | 1.78 | 0.00 | 82 | 1011.3 |
| 20260906093032 | 22 | 72 | 0.0 | 0.0 | 0.00 | 1.78 | 0.00 | 83 | 1011.3 |
| 20260906091534 | 22 | 72 | 0.0 | 0.0 | 0.00 | 1.78 | 0.00 | 83 | 1011.2 |
| 20260906090029 | 22 | 72 | 0.0 | 0.0 | 0.00 | 1.78 | 0.00 | 83 | 1011.3 |
| 20260906084529 | 22 | 72 | 0.0 | 0.0 | 0.00 | 1.78 | 0.00 | 83 | 1011.1 |
| 20260906083027 | 22 | 72 | 0.0 | 0.0 | 0.00 | 1.78 | 0.00 | 84 | 1011.3 |
| 20260906081525 | 22 | 72 | 0.0 | 0.0 | 0.00 | 1.78 | 0.00 | 84 | 1010.9 |
| 20260906080026 | 22 | 72 | 0.0 | 0.0 | 0.00 | 1.78 | 0.00 | 84 | 1011.1 |
| 20260906074527 | 22 | 72 | 0.0 | 0.0 | 0.00 | 1.78 | 0.00 | 84 | 1011.1 |
| 20260906073025 | 22 | 72 | 0.0 | 0.0 | 0.00 | 1.78 | 0.00 | 84 | 1010.9 |
| 20260906071522 | 22 | 72 | 0.0 | 0.0 | 0.00 | 1.78 | 0.00 | 85 | 1011.0 |
| 20260906070018 | 22 | 72 | 0.0 | 0.0 | 0.00 | 1.78 | 0.00 | 85 | 1010.9 |
| 20260906064517 | 22 | 72 | 0.0 | 0.0 | 0.00 | 1.78 | 0.00 | 85 | 1010.9 |
| 20260906063014 | 22 | 66 | 0.0 | 0.0 | 0.00 | 1.78 | 0.00 | 84 | 1011.0 |
| 20260906061512 | 22 | 67 | 0.0 | 0.0 | 0.00 | 1.78 | 0.00 | 84 | 1011.3 |
| 20260906060011 | 22 | 67 | 0.0 | 0.0 | 0.00 | 1.78 | 0.00 | 85 | 1011.4 |
| 20260906054511 | 22 | 67 | 0.0 | 0.0 | 0.00 | 1.78 | 0.00 | 85 | 1011.5 |
| 20260906053005 | 22 | 67 | 0.0 | 0.0 | 0.00 | 1.78 | 0.00 | 86 | 1011.7 |
| 20260906051502 | 22 | 66 | 0.0 | 0.0 | 0.00 | 1.78 | 0.00 | 86 | 1012.1 |
| 20260906050001 | 22 | 67 | 0.0 | 0.0 | 0.00 | 1.78 | 0.00 | 86 | 1011.8 |
| 20260906044600 | 22 | 66 | 0.0 | 0.0 | 0.00 | 1.78 | 0.00 | 87 | 1011.8 |
| 20260906043058 | 23 | 67 | 0.0 | 1.6 | 0.00 | 1.78 | 0.00 | 87 | 1011.6 |
| 20260906041551 | 23 | 67 | 0.0 | 0.0 | 0.00 | 1.78 | 0.00 | 86 | 1011.7 |
| 20260906040047 | 23 | 66 | 0.0 | 1.6 | 0.00 | 1.78 | 1.78 | 86 | 1011.8 |
| 20260906034547 | 23 | 67 | 0.0 | 0.0 | 0.00 | 1.78 | 1.78 | 85 | 1011.9 |
| 20260906033055 | 23 | 66 | 0.0 | 1.6 | 0.00 | 1.78 | 1.78 | 86 | 1011.9 |
| 20260906031546 | 23 | 67 | 0.0 | 0.0 | 0.00 | 1.78 | 1.78 | 85 | 1012.2 |
| 20260906030046 | 22 | 67 | 0.0 | 1.6 | 0.00 | 1.78 | 1.78 | 86 | 1012.3 |
| 20260906024544 | 22 | 67 | 0.0 | 0.0 | 0.00 | 1.78 | 1.78 | 86 | 1012.3 |
| 20260906023042 | 23 | 67 | 0.0 | 0.0 | 0.00 | 1.78 | 1.78 | 86 | 1012.4 |
| 20260906021548 | 23 | 60 | 0.0 | 1.6 | 0.00 | 1.78 | 1.78 | 85 | 1012.5 |
| 20260906020049 | 23 | 61 | 0.0 | 0.0 | 0.00 | 1.78 | 1.78 | 86 | 1012.4 |
| 20260906014550 | 23 | 61 | 0.0 | 0.0 | 0.00 | 1.78 | 1.78 | 86 | 1012.2 |
| 20260906013039 | 23 | 61 | 0.0 | 1.6 | 0.00 | 1.78 | 1.78 | 86 | 1012.3 |
| 20260906011539 | 23 | 60 | 0.0 | 1.6 | 0.00 | 1.78 | 1.78 | 86 | 1012.2 |
| 20260906010038 | 23 | 354 | 0.0 | 1.6 | 0.00 | 1.78 | 1.78 | 86 | 1011.7 |
| 20260906004541 | 23 | 345 | 0.0 | 1.6 | 0.00 | 1.78 | 1.78 | 87 | 1011.8 |
| 20260906003038 | 23 | 129 | 0.0 | 1.6 | 0.00 | 1.78 | 1.78 | 87 | 1011.7 |
| 20260906001536 | 23 | 130 | 0.0 | 1.6 | 0.00 | 1.78 | 1.78 | 88 | 1011.1 |
| 20260906000041 | 23 | 130 | 0.0 | 1.6 | 0.51 | 1.78 | 1.78 | 88 | 1010.5 |
| 20260905234535 | 23 | 134 | 0.0 | 1.6 | 1.09 | 1.78 | 1.78 | 87 | 1009.3 |
| 20260905233040 | 23 | 153 | 0.0 | 0.0 | 1.78 | 1.78 | 1.78 | 88 | 1008.7 |
| 20260905231540 | 23 | 153 | 0.0 | 1.6 | 1.78 | 1.78 | 1.78 | 88 | 1009.4 |
| 20260905230030 | 23 | 152 | 0.0 | 9.7 | 1.24 | 1.24 | 1.24 | 85 | 1011.9 |
| 20260905224529 | 26 | 292 | 1.6 | 11.3 | 0.66 | 0.66 | 0.66 | 80 | 1012.7 |
| 20260905223028 | 32 | 157 | 1.6 | 11.3 | 0.00 | 0.00 | 0.00 | 59 | 1011.4 |
| 20260905221533 | 37 | 127 | 0.0 | 1.6 | 0.00 | 0.00 | 0.00 | 47 | 1009.7 |
| 20260905220026 | 38 | 127 | 0.0 | 1.6 | 0.00 | 0.00 | 0.00 | 42 | 1009.3 |
| 20260905214528 | 40 | 127 | 0.0 | 3.2 | 0.00 | 0.00 | 0.00 | 40 | 1009.3 |
| 20260905213025 | 39 | 127 | 0.0 | 1.6 | 0.00 | 0.00 | 0.00 | 41 | 1009.1 |
| 20260905211530 | 37 | 144 | 0.0 | 1.6 | 0.00 | 0.00 | 0.00 | 44 | 1009.1 |
| 20260905210020 | 37 | 143 | 0.0 | 0.0 | 0.00 | 0.00 | 0.00 | 47 | 1009.5 |
| 20260905204519 | 37 | 143 | 0.0 | 0.0 | 0.00 | 0.00 | 0.00 | 44 | 1009.6 |
| 20260905203018 | 38 | 143 | 0.0 | 1.6 | 0.00 | 0.00 | 0.00 | 43 | 1009.8 |
| 20260905201515 | 38 | 143 | 0.0 | 0.0 | 0.00 | 0.00 | 0.00 | 42 | 1010.0 |
| 20260905200015 | 38 | 144 | 0.0 | 1.6 | 0.00 | 0.00 | 0.00 | 41 | 1010.3 |
| 20260905194511 | 38 | 124 | 0.0 | 3.2 | 0.00 | 0.00 | 0.00 | 43 | 1010.4 |
| 20260905193009 | 37 | 211 | 0.0 | 1.6 | 0.00 | 0.00 | 0.00 | 47 | 1010.4 |
| 20260905191507 | 38 | 146 | 0.0 | 3.2 | 0.00 | 0.00 | 0.00 | 44 | 1010.6 |
| 20260905190005 | 40 | 262 | 0.0 | 1.6 | 0.00 | 0.00 | 0.00 | 42 | 1010.8 |
| 20260905184506 | 39 | 267 | 0.0 | 3.2 | 0.00 | 0.00 | 0.00 | 41 | 1011.1 |
| 20260905183101 | 39 | 68 | 0.0 | 1.6 | 0.00 | 0.00 | 0.00 | 42 | 1011.3 |
| 20260905181554 | 38 | 238 | 0.0 | 3.2 | 0.00 | 0.00 | 0.00 | 44 | 1011.5 |
| 20260905180050 | 37 | 152 | 0.0 | 3.2 | 0.00 | 0.00 | 0.00 | 47 | 1011.5 |
| 20260905174549 | 37 | 288 | 0.0 | 3.2 | 0.00 | 0.00 | 0.00 | 47 | 1011.8 |
| 20260905173046 | 38 | 290 | 0.0 | 1.6 | 0.00 | 0.00 | 0.00 | 46 | 1012.2 |
| 20260905171541 | 38 | 290 | 0.0 | 3.2 | 0.00 | 0.00 | 0.00 | 48 | 1012.1 |
| 20260905170038 | 37 | 155 | 0.0 | 1.6 | 0.00 | 0.00 | 0.00 | 50 | 1012.1 |
| 20260905164533 | 37 | 267 | 0.0 | 4.8 | 0.00 | 0.00 | 0.00 | 50 | 1012.3 |
| 20260905163028 | 36 | 226 | 0.0 | 1.6 | 0.00 | 0.00 | 0.00 | 51 | 1012.3 |
| 20260905161525 | 36 | 291 | 0.0 | 3.2 | 0.00 | 0.00 | 0.00 | 52 | 1012.6 |
| 20260905160027 | 35 | 194 | 0.0 | 1.6 | 0.00 | 0.00 | 0.00 | 53 | 1012.8 |
| 20260905154517 | 34 | 194 | 0.0 | 3.2 | 0.00 | 0.00 | 0.00 | 57 | 1013.2 |
| 20260905153012 | 33 | 228 | 0.0 | 3.2 | 0.00 | 0.00 | 0.00 | 61 | 1013.4 |
| 20260905151508 | 31 | 267 | 0.0 | 1.6 | 0.00 | 0.00 | 0.00 | 64 | 1013.3 |
| 20260905150003 | 31 | 291 | 0.0 | 3.2 | 0.00 | 0.00 | 0.00 | 68 | 1013.4 |
| 20260905144559 | 30 | 262 | 0.0 | 1.6 | 0.00 | 0.00 | 0.00 | 70 | 1013.6 |
| 20260905143056 | 29 | 263 | 0.0 | 1.6 | 0.00 | 0.00 | 0.00 | 72 | 1013.5 |
| 20260905141551 | 28 | 253 | 0.0 | 1.6 | 0.00 | 0.00 | 0.00 | 74 | 1013.5 |
| 20260905140048 | 27 | 236 | 0.0 | 1.6 | 0.00 | 0.00 | 0.00 | 76 | 1013.6 |
| 20260905134548 | 27 | 111 | 0.0 | 0.0 | 0.00 | 0.00 | 0.00 | 78 | 1013.7 |
| 20260905133047 | 26 | 111 | 0.0 | 1.6 | 0.00 | 0.00 | 0.00 | 81 | 1013.9 |
| 20260905131547 | 26 | 112 | 0.0 | 0.0 | 0.00 | 0.00 | 0.00 | 82 | 1013.9 |
| 20260905130046 | 25 | 111 | 0.0 | 0.0 | 0.00 | 0.00 | 0.00 | 84 | 1014.1 |
| 20260905124546 | 24 | 112 | 0.0 | 0.0 | 0.00 | 0.00 | 0.00 | 88 | 1014.0 |
| 20260905123048 | 24 | 111 | 0.0 | 0.0 | 0.00 | 0.00 | 0.00 | 88 | 1014.0 |
| 20260905121544 | 23 | 111 | 0.0 | 0.0 | 0.00 | 0.00 | 0.00 | 88 | 1014.0 |
| 20260905120041 | 23 | 111 | 0.0 | 0.0 | 0.00 | 0.00 | 0.00 | 88 | 1013.7 |